Zurück zum Katalog

FENGYUN 1C DEB

AktivSSO
NORAD 35234·DEBRIS·🇨🇳 China

Gestartet May 10, 1999 von Taiyuan Satellite Launch Center

Loading…

Nächste Überflüge (nächste 24 Stunden)

TLE

AktuellSource: Space-Track

Epoche: Sep 14, 2026, 08:40 UTC

1 35234U 99025DQS 26257.36161067  .00003177  00000-0  52531-3 0  9991
2 35234  98.0447 285.4686 0098009 110.2533 250.9241 14.67875912983969

Verfolge FENGYUN 1C DEB in Echtzeit mit AllMySat

Download on the App Store